Regional Weather Roundup
Issued by NWS

Home | Current Version | Previous Version | Text Only | Print | Product List | Glossary Off
Versions: 1 2 3 4 5 6 7 8 9 10 11 12 13 14 15 16 17 18 19 20 21 22 23 24 25 26 27

000
ASUS45 KTFX 270410
RWRMT
MONTANA REGIONAL WEATHER ROUNDUP
NATIONAL WEATHER SERVICE GREAT FALLS MT
1000 PM MDT WED JUL 26 2017

NOTE: "FAIR" INDICATES FEW OR NO CLOUDS BELOW 12000 FEET WITH NO
SIGNIFICANT WEATHER AND/OR OBSTRUCTIONS TO VISIBILITY.

MTZ001>007-043-270500-
WEST OF THE DIVIDE

CITY           SKY/WX    TMP DP  RH WIND       PRES   REMARKS
KALISPELL      MOCLDY    73  49  42 N3        29.98R
MISSOULA       CLOUDY    77  48  35 E9        30.04R
BUTTE          CLOUDY    68  45  43 S5        30.21F
MULLAN PASS    MOCLDY    65  35  33 CALM      30.23S
DEER LODGE       N/A     66  50  55 SE7       30.16S
EUREKA           N/A     81  34  18 MISG      29.96R
LIBBY            N/A     73  39  29 SE6       29.97R
$$

MTZ008-052>055-270500-
SOUTHWEST MONTANA

CITY           SKY/WX    TMP DP  RH WIND       PRES   REMARKS
BOZEMAN        CLEAR     68  55  63 SE7       30.15R
DILLON         CLOUDY    68  44  42 E9        30.19R
W YELLOWSTONE  CLOUDY    54  54 100 SW5       30.33R
ENNIS          MOCLDY    66  50  55 S5        30.26R
$$

MTZ009-010-012-014-046-048-049-054-270500-
EAST SLOPES AND CENTRAL MONTANA

CITY           SKY/WX    TMP DP  RH WIND       PRES   REMARKS
CUT BANK       MOCLDY    75  36  24 SW5       30.03R
GREAT FALLS    MOCLDY    78  39  24 S9        30.02R
HELENA         PTCLDY    79  44  28 W12       30.05F
CHOTEAU          N/A     72  37  28 E7        30.06R
$$

MTZ011-013-016-021-045-047-050-051-270500-
NORTH CENTRAL MONTANA

CITY           SKY/WX    TMP DP  RH WIND       PRES   REMARKS
HAVRE          CLOUDY    76  46  34 E9        29.98R
LEWISTOWN      PTCLDY    75  47  36 SW13      30.08R
N BAR RANCH      N/A     75  45  33 W8        30.12S
CHINOOK          N/A     77  50  38 CALM      29.98R
$$

MTZ017>020-022>027-061-062-270500-
NORTHEAST MONTANA

CITY           SKY/WX    TMP DP  RH WIND       PRES   REMARKS
GLASGOW        PTCLDY    81  45  28 E16       30.00R
JORDAN           N/A     80  44  27 E6        29.99R
SIDNEY         CLEAR     78  51  38 E6        30.06R
WOLF POINT     PTCLDY    77  46  33 NE8       30.02R
MALTA          CLEAR     73  48  40 E8        29.98S
PLENTYWOOD       N/A     73  50  43 E9        30.08R
POPLAR           N/A     81  46  30 E10       30.03R
$$

MTZ028>42-056>058-270500-
SOUTHCENTRAL AND SOUTHEAST MONTANA

CITY           SKY/WX    TMP DP  RH WIND       PRES   REMARKS
BAKER          CLEAR     73  46  38 SE9       30.09R
BILLINGS       CLOUDY    80  47  31 SW9       30.05S
LIVINGSTON     PTCLDY    67  52  58 CALM      30.15R
MILES CITY     CLEAR     83  45  26 SE7       30.00R
BIG TIMBER     CLOUDY    70  52  52 SW5       30.17R
FORSYTH          N/A     81  46  30 SE3       29.99S
LAUREL           N/A     74  51  44 CALM      30.05S
$$

REGIONAL REPORTS...DAKOTAS

CITY           SKY/WX    TMP DP  RH WIND       PRES   REMARKS
WILLISTON      CLEAR     78  53  41 E12       30.08R
MINOT          CLEAR     67  55  65 E7        30.11S
DICKINSON      CLEAR     70  50  49 E10       30.10R
BEACH          DRIZZLE   75  46  35 E15       30.11R
CROSBY           N/A     64  54  68 SE6       30.10S
TIOGA            N/A     66  50  55 E7        30.14R
WATFORD CITY     N/A     73  50  43 E9        30.09R
BISMARCK       CLEAR     70  55  59 E8        30.12R
GRAND FORKS    CLEAR     65  61  87 NW6       30.07S
FARGO          CLEAR     67  61  81 CALM      30.08R
BUFFALO SD       N/A     73  51  46 SE8       30.06R
RAPID CITY     CLEAR     72  49  44 SE9       30.16R
$$

REGIONAL REPORTS...WYOMING/IDAHO/WASHINGTON

CITY           SKY/WX    TMP DP  RH WIND       PRES   REMARKS
GILLETTE       PTCLDY    73  50  44 S13       30.18R
SHERIDAN       PTCLDY    76  53  44 SE16      30.09R
BUFFALO WY     CLOUDY    67  51  56 S20       30.20R
CODY           CLOUDY    71  48  43 W6        30.19R
YELLOWSTONE LA   N/A     57  53  86 CALM      30.40R
IDAHO FALLS    TSTM      61  57  87 W21G29    30.27R FOG
BOISE          MOCLDY    80  56  43 W9        30.07R
SPOKANE        MOCLDY    83  42  23 SW5       29.96S
$$

REGIONAL REPORTS...ALBERTA

CITY           SKY/WX    TMP DP  RH WIND       PRES   REMARKS
EDMONTON       CLEAR     64  57  77 E7        29.94S
CALGARY        MOCLDY    73  45  35 E9        29.99R
LETHBRIDGE     PTCLDY    70  50  49 E7        29.95S
MEDICINE HAT   CLEAR     77  45  31 E8        29.94S
WATERTON GATE    N/A     61  48  63 SW1         N/A
CARDSTON         N/A     72  43  35 SW6         N/A
MILK RIVER       N/A     68  41  37 SE6         N/A
ONEFOUR          N/A     70  36  28 E12         N/A
$$

REGIONAL REPORTS...SASKATCHEWAN

CITY           SKY/WX    TMP DP  RH WIND       PRES   REMARKS
SWIFT CURRENT  CLEAR     70  50  49 SE9       30.05S
REGINA         CLEAR     72  52  49 E10       30.07S
SASKATOON      CLEAR     64  55  72 E8        30.06S
CYPRESS HILLS    N/A     68  34  28 SE5         N/A
ROCKGLEN         N/A     70  43  37 NE2         N/A
$$




USA.gov is the U.S. government's official web portal to all federal, state and local government web resources and services.